Regional Weather Roundup
Issued by NWS

Home | Current Version | Previous Version | Graphics & Text | Print | Product List | Glossary Off
Versions: 1 2 3 4 5 6 7 8 9 10 11 12 13 14 15 16 17 18 19 20 21 22 23 24 25 26 27 28 29 30 31 32 33 34 35 36 37 38 39 40 41 42 43 44 45 46 47 48 49 50

114
ASUS43 KDMX 171406
RWRIA

WEATHER ROUNDUP FOR IOWA
NATIONAL WEATHER SERVICE DES MOINES IA
900 AM CDT TUE OCT 17 2017

NOTE: "FAIR" INDICATES FEW OR NO CLOUDS BELOW 12,000 FEET WITH NO
SIGNIFICANT WEATHER AND/OR OBSTRUCTIONS TO VISIBILITY.

* - THESE STATIONS ARE NOT NWS STATIONS...THUS NOT UNDER NWS
QUALITY CONTROL.  THEY ALSO DO NOT REPORT WEATHER SUCH
AS PRECIPITATION OR FOG.

IAZ001>003-012>014-020>022-031>034-043>046-171500-
   NORTHWEST IOWA

CITY           SKY/WX    TMP DP  RH WIND       PRES   REMARKS
CARROLL *      SUNNY     55  45  67 SW14      30.09R
CHEROKEE *     SUNNY     45  43  94 CALM      30.09R
DENISON *      SUNNY     50  41  71 S7        30.11S
LE MARS *      SUNNY     45  41  87 S5        30.07R
ORANGE CITY *  SUNNY     45  43  93 S5        30.07R
SHELDON *      SUNNY     46  41  81 S7        30.05R
SIOUX CITY     SUNNY     45  41  86 E3        30.08R
SPENCER        SUNNY     49  41  74 SW7       30.07R
STORM LAKE *   SUNNY     52  41  66 SW13      30.07S
$$

IAZ055>058-069>071-079>083-090>094-171500-
   SOUTHWEST IOWA

CITY           SKY/WX    TMP DP  RH WIND       PRES   REMARKS
ATLANTIC *     SUNNY     50  43  76 S8        30.12S
AUDUBON *      SUNNY     52  43  71 S9        30.12S
CLARINDA *     SUNNY     52  43  71 S7G13     30.18R
COUNCIL BLFS * SUNNY     50  45  81 S7        30.11S
CRESTON *      SUNNY     50  43  76 S13       30.16R
HARLAN  *      SUNNY     48  43  81 S8        30.14S
LAMONI         SUNNY     52  42  69 S14       30.17S
RED OAK *      SUNNY     50  43  76 S9        30.14R
SHENANDOAH *   SUNNY     52  43  71 S8        30.15R
$$

IAZ047>049-059>061-072>074-084-171500-
   CENTRAL IOWA

CITY           SKY/WX    TMP DP  RH WIND       PRES   REMARKS
AMES           SUNNY     53  43  68 SW10      30.12R
ANKENY *       SUNNY     54  41  62 SW8G14    30.15R
BOONE *        SUNNY     52  41  66 SW12      30.10R
CHARITON *     SUNNY     54  41  62 SW15      30.16S
DES MOINES     MOSUNNY   54  41  61 S12G22    30.13R
GRINNELL*      SUNNY     51  41  70 SW9       30.15S
KNOXVILLE *    SUNNY     54  41  62 SW10      30.15R
MARSHALLTOWN   SUNNY     52  42  69 SW9       30.12R
NEWTON *       SUNNY     54  41  62 SW13G21   30.14S
PELLA *        SUNNY     53  41  63 SW10      30.16S
PERRY *          N/A     56  40  54 SW9       30.12R
$$

IAZ004>006-015-016-023>025-035-036-171500-
   NORTH CENTRAL IOWA

CITY           SKY/WX    TMP DP  RH WIND       PRES   REMARKS
ALGONA *       SUNNY     48  43  81 SW8       30.07R
CLARION *      SUNNY     50  43  76 S9        30.09R
ESTHERVILLE    SUNNY     51  41  68 SW10      30.05R
FORT DODGE *   SUNNY     50  42  74 SW9       30.09R
MASON CITY     SUNNY     51  41  68 SW12      30.09R
FOREST CITY *    N/A     48  41  76 SW5       30.08R
WEBSTER CITY * SUNNY     52  41  66 SW10      30.08R
IOWA FALLS *     N/A     51  43  72 S9        30.11R
$$

IAZ007>011-017>019-026>030-037>042-050>054-066-171500-
   NORTHEAST IOWA

CITY           SKY/WX    TMP DP  RH WIND       PRES   REMARKS
CEDAR RAPIDS   SUNNY     53  42  66 SW12      30.14S
CHARLES CITY * SUNNY     48  43  81 S5        30.10R
CLINTON *      SUNNY     56  43  61 SW12      30.19S
DECORAH *      SUNNY     52  41  66 VRB6G14   30.08R
DUBUQUE        SUNNY     50  41  71 SW13      30.14R
MONTICELLO *   SUNNY     55  41  58 SW10G17   30.15R
OELWEIN *      SUNNY     50  45  81 S9        30.12R
WATERLOO       SUNNY     53  41  63 SW12      30.10S
$$

IAZ064-065-067-068-078-171500-
   EAST CENTRAL IOWA

CITY           SKY/WX    TMP DP  RH WIND       PRES   REMARKS
DAVENPORT      SUNNY     54  41  61 SW13      30.21R
IOWA CITY      SUNNY     55  42  61 S9        30.19R
MUSCATINE *    SUNNY     55  43  62 S7        30.20S
QUAD CITIES    SUNNY     55  41  59 SW12      30.19S
$$

IAZ062-063-075>077-085>089-095>099-171500-
   SOUTHEAST IOWA

CITY           SKY/WX    TMP DP  RH WIND       PRES   REMARKS
BURLINGTON     MOSUNNY   51  44  77 SW9       30.23R
FAIRFIELD *    SUNNY     54  41  62 SW12      30.19S
FORT MADISON * SUNNY     54  43  66 S13       30.23S
KEOKUK *       SUNNY     52  43  71 S12       30.23S
OSKALOOSA *      N/A     53  42  66 SW14      30.17F
OTTUMWA        SUNNY     53  42  66 S12       30.18R
WASHINGTON *   SUNNY     54  43  66 S14       30.20S
$$

ABBREVIATIONS USED IN REMARKS
   TC - TEMPERATURES IN CELSIUS
  WCI - WIND CHILL INDEX
   HX - HEAT INDEX
  VSB - VISIBILITY
$$





USA.gov is the U.S. government's official web portal to all federal, state and local government web resources and services.